When you browse on this site, cookies collect data to enhance your experience and personalize the content and advertising you see.
Visit our Privacy Policy to learn more. By continuing to use the site, you agree to this use of cookies and data.

Meteo pe oră la Pszczyna

Astăzi, 5 August, Miercuri

Timp Temperatura Precipitaţii Vânt Presiune Umiditate
00:00 +16°C° 0.1 mm 2 m/s 739 mmHg 93%
01:00 +16°C° 0.1 mm 2 m/s 739 mmHg 93%
02:00 +16°C° 0 mm 3 m/s 739 mmHg 92%
03:00 +16°C° 0 mm 3 m/s 739 mmHg 91%
04:00 +16°C° 0 mm 3 m/s 740 mmHg 90%
05:00 +16°C° 0 mm 3 m/s 740 mmHg 88%
06:00 +16°C° 0 mm 3 m/s 740 mmHg 87%
07:00 +16°C° 0 mm 2 m/s 740 mmHg 85%
08:00 +17°C° 0.1 mm 2 m/s 741 mmHg 82%
09:00 +17°C° 0.1 mm 2 m/s 741 mmHg 79%
10:00 +18°C° 0.1 mm 2 m/s 742 mmHg 76%
11:00 +18°C° 0.1 mm 3 m/s 741 mmHg 74%
12:00 +19°C° 0.1 mm 3 m/s 741 mmHg 72%
13:00 +19°C° 0.1 mm 3 m/s 741 mmHg 70%
14:00 +20°C° 0 mm 3 m/s 741 mmHg 67%
15:00 +21°C° 0 mm 3 m/s 741 mmHg 64%
16:00 +22°C° 0 mm 3 m/s 741 mmHg 61%
17:00 +21°C° 0 mm 3 m/s 741 mmHg 65%
18:00 +20°C° 0 mm 3 m/s 741 mmHg 69%
19:00 +19°C° 0 mm 2 m/s 741 mmHg 73%
20:00 +18°C° 0 mm 2 m/s 742 mmHg 73%
21:00 +18°C° 0 mm 2 m/s 742 mmHg 73%
22:00 +18°C° 0 mm 3 m/s 742 mmHg 74%
23:00 +17°C° 0 mm 3 m/s 742 mmHg 75%

Mâine, 6 August, Joi

Timp Temperatura Precipitaţii Vânt Presiune Umiditate
00:00 +17°C° 0 mm 3 m/s 742 mmHg 77%
01:00 +17°C° 0 mm 3 m/s 742 mmHg 78%
02:00 +16°C° 0 mm 3 m/s 742 mmHg 79%
03:00 +16°C° 0 mm 3 m/s 742 mmHg 80%
04:00 +16°C° 0 mm 3 m/s 742 mmHg 82%
05:00 +17°C° 0 mm 3 m/s 742 mmHg 81%
06:00 +18°C° 0 mm 3 m/s 743 mmHg 80%
07:00 +19°C° 0 mm 4 m/s 743 mmHg 80%
08:00 +20°C° 0 mm 4 m/s 743 mmHg 77%
09:00 +22°C° 0 mm 4 m/s 743 mmHg 74%
10:00 +23°C° 0 mm 4 m/s 743 mmHg 71%
11:00 +25°C° 0 mm 4 m/s 743 mmHg 69%
12:00 +26°C° 0 mm 4 m/s 743 mmHg 67%
13:00 +26°C° 0 mm 4 m/s 743 mmHg 66%
14:00 +27°C° 0 mm 4 m/s 743 mmHg 66%
15:00 +27°C° 0 mm 4 m/s 743 mmHg 66%
16:00 +27°C° 0 mm 3 m/s 743 mmHg 65%
17:00 +26°C° 0.2 mm 3 m/s 743 mmHg 70%
18:00 +25°C° 0.2 mm 2 m/s 743 mmHg 74%
19:00 +24°C° 0.2 mm 2 m/s 743 mmHg 79%
20:00 +23°C° 0 mm 2 m/s 743 mmHg 80%
21:00 +21°C° 0 mm 2 m/s 744 mmHg 82%
22:00 +21°C° 0 mm 2 m/s 744 mmHg 83%
23:00 +20°C° 0 mm 2 m/s 744 mmHg 84%

Poimâine, 7 August, Vineri

Timp Temperatura Precipitaţii Vânt Presiune Umiditate
00:00 +20°C° 0 mm 2 m/s 744 mmHg 86%
01:00 +19°C° 0 mm 2 m/s 744 mmHg 87%
02:00 +19°C° 0 mm 2 m/s 744 mmHg 88%
03:00 +19°C° 0 mm 2 m/s 744 mmHg 89%
04:00 +18°C° 0 mm 2 m/s 744 mmHg 90%
05:00 +19°C° 0 mm 2 m/s 744 mmHg 86%
06:00 +20°C° 0 mm 2 m/s 744 mmHg 82%
07:00 +23°C° 0 mm 2 m/s 745 mmHg 79%
08:00 +25°C° 0 mm 3 m/s 745 mmHg 70%
09:00 +26°C° 0 mm 4 m/s 745 mmHg 61%
10:00 +28°C° 0 mm 4 m/s 745 mmHg 52%
11:00 +29°C° 0 mm 4 m/s 745 mmHg 50%
12:00 +30°C° 0 mm 4 m/s 745 mmHg 48%
13:00 +30°C° 0 mm 5 m/s 744 mmHg 47%
14:00 +30°C° 0 mm 4 m/s 744 mmHg 48%
15:00 +30°C° 0 mm 4 m/s 744 mmHg 49%
16:00 +30°C° 0 mm 4 m/s 744 mmHg 51%
17:00 +28°C° 0 mm 4 m/s 744 mmHg 57%
18:00 +26°C° 0 mm 3 m/s 743 mmHg 63%
19:00 +25°C° 0 mm 3 m/s 743 mmHg 69%
20:00 +24°C° 0 mm 3 m/s 744 mmHg 73%
21:00 +23°C° 0 mm 2 m/s 744 mmHg 77%
22:00 +21°C° 0 mm 2 m/s 744 mmHg 81%
23:00 +21°C° 0 mm 2 m/s 744 mmHg 83%

8 August, Sâmbătă

Timp Temperatura Precipitaţii Vânt Presiune Umiditate
00:00 +20°C° 0 mm 2 m/s 743 mmHg 85%
01:00 +20°C° 0 mm 2 m/s 743 mmHg 87%
02:00 +20°C° 0 mm 2 m/s 743 mmHg 87%
03:00 +19°C° 0 mm 2 m/s 743 mmHg 88%
04:00 +19°C° 0 mm 2 m/s 743 mmHg 89%
05:00 +20°C° 0 mm 2 m/s 743 mmHg 85%
06:00 +21°C° 0 mm 2 m/s 743 mmHg 82%
07:00 +23°C° 0 mm 2 m/s 743 mmHg 78%
08:00 +25°C° 0 mm 3 m/s 743 mmHg 72%
09:00 +26°C° 0 mm 3 m/s 743 mmHg 65%
10:00 +28°C° 0 mm 3 m/s 743 mmHg 59%
11:00 +29°C° 0 mm 3 m/s 742 mmHg 56%
12:00 +30°C° 0 mm 3 m/s 742 mmHg 54%
13:00 +30°C° 0 mm 3 m/s 742 mmHg 51%
14:00 +30°C° 0.2 mm 3 m/s 741 mmHg 52%
15:00 +30°C° 0.2 mm 3 m/s 741 mmHg 53%
16:00 +30°C° 0.2 mm 3 m/s 741 mmHg 54%
17:00 +28°C° 0.1 mm 3 m/s 741 mmHg 60%
18:00 +27°C° 0.1 mm 3 m/s 740 mmHg 66%
19:00 +25°C° 0.1 mm 2 m/s 740 mmHg 72%
20:00 +24°C° 0 mm 2 m/s 740 mmHg 76%
21:00 +23°C° 0 mm 2 m/s 740 mmHg 79%
22:00 +21°C° 0 mm 2 m/s 740 mmHg 82%
23:00 +21°C° 0 mm 2 m/s 740 mmHg 84%

9 August, Duminică

Timp Temperatura Precipitaţii Vânt Presiune Umiditate
00:00 +21°C° 0 mm 2 m/s 740 mmHg 87%
01:00 +20°C° 0 mm 2 m/s 740 mmHg 89%
02:00 +20°C° 0 mm 2 m/s 740 mmHg 90%
03:00 +20°C° 0 mm 1 m/s 740 mmHg 91%
04:00 +20°C° 0 mm 1 m/s 739 mmHg 92%
05:00 +20°C° 0 mm 2 m/s 740 mmHg 89%
06:00 +21°C° 0 mm 2 m/s 740 mmHg 85%
07:00 +23°C° 0 mm 2 m/s 740 mmHg 82%
08:00 +24°C° 0 mm 2 m/s 740 mmHg 75%
09:00 +26°C° 0 mm 3 m/s 740 mmHg 68%
10:00 +27°C° 0 mm 3 m/s 740 mmHg 61%
11:00 +28°C° 0 mm 3 m/s 739 mmHg 58%
12:00 +28°C° 0 mm 3 m/s 739 mmHg 56%
13:00 +29°C° 0 mm 3 m/s 739 mmHg 53%
14:00 +29°C° 0.1 mm 3 m/s 739 mmHg 53%
15:00 +29°C° 0.1 mm 3 m/s 739 mmHg 54%
16:00 +29°C° 0.1 mm 3 m/s 738 mmHg 54%
17:00 +27°C° 0.2 mm 2 m/s 738 mmHg 60%
18:00 +25°C° 0.2 mm 2 m/s 738 mmHg 67%
19:00 +24°C° 0.2 mm 2 m/s 738 mmHg 74%
20:00 +23°C° 0 mm 2 m/s 738 mmHg 76%
21:00 +21°C° 0 mm 2 m/s 738 mmHg 79%
22:00 +21°C° 0 mm 1 m/s 738 mmHg 81%
23:00 +21°C° 0 mm 1 m/s 738 mmHg 82%

10 August, Luni

Timp Temperatura Precipitaţii Vânt Presiune Umiditate
00:00 +20°C° 0 mm 1 m/s 738 mmHg 83%
01:00 +20°C° 0 mm 1 m/s 738 mmHg 84%
02:00 +20°C° 0 mm 1 m/s 738 mmHg 85%
03:00 +19°C° 0 mm 1 m/s 738 mmHg 86%
04:00 +19°C° 0 mm 1 m/s 738 mmHg 87%
05:00 +20°C° 0 mm 1 m/s 738 mmHg 83%
06:00 +21°C° 0 mm 1 m/s 738 mmHg 79%
07:00 +23°C° 0 mm 1 m/s 738 mmHg 76%
08:00 +24°C° 0 mm 2 m/s 739 mmHg 70%
09:00 +26°C° 0 mm 2 m/s 739 mmHg 63%
10:00 +27°C° 0 mm 3 m/s 739 mmHg 57%
11:00 +28°C° 0 mm 3 m/s 739 mmHg 54%
12:00 +29°C° 0 mm 3 m/s 738 mmHg 51%
13:00 +29°C° 0 mm 3 m/s 738 mmHg 48%
14:00 +29°C° 0 mm 3 m/s 738 mmHg 49%
15:00 +29°C° 0 mm 3 m/s 738 mmHg 49%
16:00 +29°C° 0 mm 3 m/s 738 mmHg 50%
17:00 +27°C° 0 mm 3 m/s 738 mmHg 55%
18:00 +26°C° 0 mm 2 m/s 738 mmHg 60%
19:00 +24°C° 0 mm 2 m/s 738 mmHg 66%
20:00 +23°C° 0 mm 2 m/s 738 mmHg 68%
21:00 +21°C° 0 mm 2 m/s 738 mmHg 71%
22:00 +22°C° 0 mm 1 m/s 738 mmHg 73%
23:00 +21°C° 0 mm 1 m/s 738 mmHg 76%
Arată mai mult